| time (UTC) | temp C | wind direction | speed KPH | gust KPH | rain 1hr cm | rain 24hr cm | rain mn cm | humidity % | barometer mb |
| 20260504034554 | 7 | 311 | 0.0 | 1.6 | 0.00 | 0.00 | 0.00 | 67 | 1015.3 |
| 20260504033054 | 7 | 30 | 0.0 | 4.8 | 0.00 | 0.00 | 0.00 | 63 | 1015.4 |
| 20260504031539 | 7 | 296 | 0.0 | 3.2 | 0.00 | 0.00 | 0.00 | 68 | 1015.5 |
| 20260504030045 | 7 | 48 | 0.0 | 3.2 | 0.00 | 0.00 | 0.00 | 64 | 1015.3 |
| 20260504024538 | 6 | 355 | 1.6 | 6.4 | 0.00 | 0.00 | 0.00 | 64 | 1015.4 |
| 20260504023049 | 6 | 9 | 0.0 | 1.6 | 0.00 | 0.00 | 0.00 | 66 | 1015.5 |
| 20260504021537 | 7 | 5 | 0.0 | 4.8 | 0.00 | 0.00 | 0.00 | 64 | 1015.4 |
| 20260504020038 | 7 | 17 | 4.8 | 8.0 | 0.00 | 0.00 | 0.00 | 63 | 1015.4 |
| 20260504014545 | 7 | 342 | 3.2 | 9.7 | 0.00 | 0.00 | 0.00 | 61 | 1015.3 |
| 20260504013038 | 8 | 360 | 3.2 | 8.0 | 0.00 | 0.00 | 0.00 | 59 | 1015.1 |
| 20260504011534 | 7 | 355 | 0.0 | 3.2 | 0.00 | 0.00 | 0.00 | 61 | 1014.8 |
| 20260504010036 | 8 | 355 | 0.0 | 3.2 | 0.00 | 0.00 | 0.00 | 57 | 1014.9 |
| 20260504004533 | 9 | 330 | 0.0 | 4.8 | 0.00 | 0.00 | 0.00 | 56 | 1014.5 |
| 20260504003034 | 9 | 11 | 3.2 | 6.4 | 0.00 | 0.00 | 0.00 | 53 | 1014.4 |
| 20260504001527 | 10 | 355 | 0.0 | 1.6 | 0.00 | 0.00 | 0.00 | 50 | 1014.4 |
| 20260504000028 | 11 | 355 | 0.0 | 0.0 | 0.00 | 0.00 | 0.00 | 46 | 1014.4 |
| 20260503234537 | 13 | 355 | 0.0 | 1.6 | 0.00 | 0.00 | 0.00 | 41 | 1014.3 |
| 20260503233026 | 13 | 327 | 1.6 | 4.8 | 0.00 | 0.00 | 0.00 | 31 | 1014.2 |
| 20260503231527 | 14 | 323 | 1.6 | 3.2 | 0.00 | 0.00 | 0.00 | 30 | 1014.1 |
| 20260503230025 | 14 | 290 | 0.0 | 4.8 | 0.00 | 0.00 | 0.00 | 35 | 1014.0 |
| 20260503224524 | 15 | 286 | 0.0 | 3.2 | 0.00 | 0.00 | 0.00 | 31 | 1014.0 |
| 20260503223024 | 16 | 300 | 1.6 | 4.8 | 0.00 | 0.00 | 0.00 | 33 | 1013.9 |
| 20260503221522 | 16 | 27 | 1.6 | 12.9 | 0.00 | 0.00 | 0.00 | 30 | 1014.0 |
| 20260503220023 | 16 | 208 | 1.6 | 4.8 | 0.00 | 0.00 | 0.00 | 26 | 1014.1 |
| 20260503214523 | 16 | 331 | 3.2 | 8.0 | 0.00 | 0.00 | 0.00 | 26 | 1014.1 |
| 20260503213021 | 16 | 69 | 0.0 | 12.9 | 0.00 | 0.00 | 0.00 | 29 | 1014.0 |
| 20260503211520 | 16 | 88 | 3.2 | 9.7 | 0.00 | 0.00 | 0.00 | 28 | 1014.0 |
| 20260503210025 | 16 | 68 | 4.8 | 12.9 | 0.00 | 0.00 | 0.00 | 27 | 1014.3 |
| 20260503204516 | 16 | 355 | 4.8 | 14.5 | 0.00 | 0.00 | 0.00 | 25 | 1014.4 |
| 20260503203022 | 16 | 24 | 4.8 | 14.5 | 0.00 | 0.00 | 0.00 | 28 | 1014.3 |
| 20260503201516 | 16 | 346 | 8.0 | 20.9 | 0.00 | 0.00 | 0.00 | 25 | 1014.7 |
| 20260503200014 | 16 | 71 | 4.8 | 17.7 | 0.00 | 0.00 | 0.00 | 28 | 1014.8 |
| 20260503194514 | 16 | 249 | 8.0 | 19.3 | 0.00 | 0.00 | 0.00 | 28 | 1015.0 |
| 20260503193012 | 16 | 9 | 3.2 | 14.5 | 0.00 | 0.00 | 0.00 | 32 | 1015.3 |
| 20260503191509 | 15 | 24 | 6.4 | 17.7 | 0.00 | 0.00 | 0.00 | 29 | 1015.6 |
| 20260503190009 | 15 | 343 | 3.2 | 19.3 | 0.00 | 0.00 | 0.00 | 32 | 1015.8 |
| 20260503184517 | 15 | 13 | 6.4 | 20.9 | 0.00 | 0.00 | 0.00 | 34 | 1016.0 |
| 20260503183007 | 15 | 343 | 8.0 | 20.9 | 0.00 | 0.00 | 0.00 | 34 | 1016.2 |
| 20260503181506 | 15 | 11 | 4.8 | 14.5 | 0.00 | 0.00 | 0.00 | 34 | 1016.2 |
| 20260503180017 | 14 | 302 | 1.6 | 22.5 | 0.00 | 0.00 | 0.00 | 37 | 1016.3 |
| 20260503174502 | 14 | 117 | 1.6 | 17.7 | 0.00 | 0.00 | 0.00 | 35 | 1016.3 |
| 20260503173119 | 13 | 5 | 4.8 | 17.7 | 0.00 | 0.00 | 0.00 | 34 | 1016.5 |
| 20260503171557 | 13 | 254 | 4.8 | 20.9 | 0.00 | 0.00 | 0.00 | 35 | 1016.9 |
| 20260503081556 | 5 | 345 | 0.0 | 4.8 | 0.00 | 0.00 | 0.00 | 61 | 1015.2 |
| 20260503071549 | 6 | 321 | 1.6 | 8.0 | 0.00 | 0.00 | 0.00 | 60 | 1014.5 |
| 20260503054538 | 6 | 79 | 3.2 | 9.7 | 0.00 | 0.00 | 0.00 | 63 | 1014.0 |
| 20260503053037 | 7 | 101 | 0.0 | 4.8 | 0.00 | 0.00 | 0.00 | 61 | 1014.0 |
| 20260503051531 | 7 | 103 | 0.0 | 3.2 | 0.00 | 0.00 | 0.00 | 59 | 1014.1 |
| 20260503050029 | 7 | 313 | 4.8 | 12.9 | 0.00 | 0.00 | 0.00 | 57 | 1014.1 |
| 20260503044526 | 8 | 59 | 1.6 | 9.7 | 0.00 | 0.00 | 0.00 | 57 | 1014.2 |
| 20260503043023 | 8 | 44 | 0.0 | 8.0 | 0.00 | 0.00 | 0.00 | 57 | 1014.2 |
| 20260503041520 | 8 | 38 | 0.0 | 4.8 | 0.00 | 0.00 | 0.00 | 56 | 1014.2 |
| 20260503040017 | 8 | 43 | 1.6 | 6.4 | 0.00 | 0.00 | 0.00 | 54 | 1014.0 |